TimeEST,TemperatureF,Dew PointF,Humidity,Sea Level PressureIn,VisibilityMPH,Wind Direction,Wind SpeedMPH,Gust SpeedMPH,PrecipitationIn,Events,Conditions,WindDirDegrees,DateUTC
12:51 AM,19.0,7.0,59,30.18,10.0,SSW,3.5,-,N/A,,Mostly Cloudy,200,2013-02-19 05:51:00
1:51 AM,21.0,9.0,60,30.16,10.0,Calm,Calm,-,N/A,,Mostly Cloudy,0,2013-02-19 06:51:00
2:51 AM,21.9,10.0,60,30.13,10.0,North,3.5,-,N/A,,Overcast,10,2013-02-19 07:51:00
3:51 AM,19.9,10.9,68,30.12,10.0,North,3.5,-,N/A,,Scattered Clouds,350,2013-02-19 08:51:00
4:51 AM,19.9,10.9,68,30.09,10.0,Calm,Calm,-,N/A,,Scattered Clouds,0,2013-02-19 09:51:00
5:51 AM,18.0,10.0,71,30.06,10.0,Calm,Calm,-,N/A,,Partly Cloudy,0,2013-02-19 10:51:00
6:51 AM,18.0,10.0,71,30.03,10.0,Calm,Calm,-,N/A,,Scattered Clouds,0,2013-02-19 11:51:00
7:51 AM,21.0,10.0,63,30.02,10.0,Calm,Calm,-,N/A,,Mostly Cloudy,0,2013-02-19 12:51:00
8:51 AM,26.1,12.0,55,29.99,10.0,Calm,Calm,-,N/A,,Mostly Cloudy,0,2013-02-19 13:51:00
9:51 AM,33.1,15.1,48,29.96,10.0,South,12.7,17.3,N/A,,Overcast,190,2013-02-19 14:51:00
10:51 AM,37.0,17.1,44,29.91,10.0,South,15.0,24.2,N/A,,Overcast,170,2013-02-19 15:51:00
11:51 AM,39.0,19.0,45,29.86,10.0,SSE,9.2,20.7,N/A,,Overcast,160,2013-02-19 16:51:00
1:51 PM,42.1,21.9,45,29.79,10.0,South,26.5,39.1,N/A,,Overcast,170,2013-02-19 18:51:00
2:51 PM,37.9,27.0,65,29.78,10.0,South,21.9,36.8,0.00,Rain-Snow,Light Rain,180,2013-02-19 19:51:00
3:51 PM,37.0,30.0,76,29.74,10.0,South,15.0,21.9,0.00,Rain,Light Rain,170,2013-02-19 20:51:00
4:13 PM,37.4,30.2,75,29.72,10.0,SSE,12.7,-,0.00,,Overcast,160,2013-02-19 21:13:00
4:51 PM,37.0,32.0,82,29.71,10.0,South,10.4,18.4,0.00,Rain,Light Rain,170,2013-02-19 21:51:00
5:31 PM,37.4,33.8,87,29.69,10.0,South,16.1,21.9,0.00,Rain,Light Rain,180,2013-02-19 22:31:00
5:51 PM,36.0,33.1,89,29.70,6.0,South,11.5,20.7,0.02,Rain-Snow,Light Rain,170,2013-02-19 22:51:00
7:51 PM,36.0,34.0,93,29.67,5.0,South,10.4,-,0.01,Rain,Light Rain,180,2013-02-20 00:51:00
8:51 PM,35.1,33.1,92,29.65,6.0,South,5.8,-,0.03,Rain,Light Rain,170,2013-02-20 01:51:00
9:51 PM,35.1,34.0,96,29.64,6.0,South,9.2,-,0.00,,Overcast,170,2013-02-20 02:51:00
10:20 PM,35.6,33.8,93,29.63,6.0,SSW,6.9,-,N/A,,Overcast,200,2013-02-20 03:20:00
10:51 PM,34.0,30.0,85,29.67,7.0,WNW,15.0,25.3,0.00,,Overcast,290,2013-02-20 03:51:00
11:21 PM,33.8,24.8,70,29.67,10.0,WNW,23.0,31.1,0.00,Snow,Light Snow,300,2013-02-20 04:21:00
11:51 PM,33.1,24.1,70,29.68,9.0,WNW,17.3,27.6,0.00,Snow,Light Snow,300,2013-02-20 04:51:00